Location: ??????????
(41.2581°N, 22.8006°E)
Time: 22:47:32
(UTC+00:00)

Daily predictions for brighter satellites

Satellite Brightness Start Highest point End
(mag) Time Altitude Azimuth Time Altitude Azimuth Time Altitude Azimuth
IGS 5A 3.3 15:25:34 10° SSE 15:29:29 73° ENE 15:33:27 10° N
MOS 1 Rocket 4.3 15:25:34 10° SE 15:29:45 28° ENE 15:34:07 10° N
Gbstr 26 Del rocket 3.4 15:26:01 10° WSW 15:30:12 49° NNW 15:33:55 10° NE
Cosmos 1743 2.4 15:27:21 10° N 15:30:35 79° W 15:33:48 10° S
Cosmos 1900 4.3 15:30:21 10° NNW 15:35:23 72° ENE 15:40:18 10° SE
Cosmos 2151 2.9 15:31:19 10° N 15:35:29 83° E 15:39:39 10° S
Cosmos 1726 Rocket 4.1 15:31:40 10° SSE 15:36:01 41° E 15:40:19 10° NNE
BREEZE-M DEB (TANK) 3.7 15:35:09 10° NW 15:38:04 34° NNE 15:45:41 10° E
SMAP 3.1 15:34:35 10° SSE 15:39:07 56° ENE 15:43:41 10° N
IRIDIUM 104 4.3 15:33:58 10° N 15:39:12 72° E 15:44:24 10° S
Meteor 1-20 Rocket 4.1 15:33:50 10° N 15:39:18 79° E 15:44:47 10° SSE
Cosmos 2297 Rocket 2.8 15:36:02 10° NNW 15:41:38 64° WSW 15:47:12 10° S
Landsat 7 4.0 15:38:51 10° SE 15:43:17 47° ENE 15:47:45 10° N
Hubble Space Telescope 3.3 15:42:54 10° S 15:43:45 11° S 15:44:37 10° SSE
GEOS 3 Rocket 3.7 15:39:20 10° NE 15:44:44 83° SE 15:50:06 10° SW
Cosmos 2084 Rocket 3.6 15:41:36 10° NW 15:45:48 74° WSW 15:49:59 10° SSE
NOSS 7 (H) 4.2 15:43:05 10° NNW 15:46:00 59° NE 15:49:23 10° SE
Cosmos 1602 Rocket 3.9 15:43:22 10° NNW 15:47:43 69° W 15:52:00 10° S
YAOGAN 1 4.1 15:45:35 10° E 15:47:55 15° ENE 15:50:15 10° NNE
IRIDIUM 114 4.3 15:43:05 10° N 15:48:21 88° E 15:53:34 10° S
Cosmos 990 Rocket 4.1 15:45:50 10° SSW 15:50:57 81° WNW 15:56:08 10° NNE
COSMOS 2455 4.2 15:48:12 10° SSE 15:52:14 19° ESE 15:55:26 13° ENE
SL-16 R/B 3.3 15:46:35 10° N 15:52:36 53° WNW 15:58:33 10° SW
Okean 1-7 Rocket 3.6 15:50:49 10° N 15:55:13 86° W 15:59:34 10° S
BREEZE M DEB (TANK) 3.2 15:53:20 10° W 15:55:37 26° NNW 15:56:59 14° NNE
CORIOLIS 4.2 15:54:58 10° SSE 16:00:19 85° WSW 16:05:41 10° NNW
Cosmos 1980 Rocket 2.2 15:55:51 10° S 16:01:27 66° ESE 16:07:03 10° NNE
SKYMED 2 4.3 15:58:28 10° NNE 16:02:23 32° E 16:06:17 10° SSE
Okean 1 4.2 15:59:36 10° SE 16:02:29 23° E 16:04:05 17° NE
Cosmos 1844 Rocket 4.4 16:02:00 10° NNE 16:04:08 12° NE 16:04:08 12° NE
Cosmos 2219 3.8 15:59:32 10° N 16:04:45 34° ENE 16:09:56 10° ESE
Aureole 1 Rocket 3.3 16:00:39 10° S 16:04:54 62° ESE 16:10:21 10° NNE
ARIANE 5 R/B 2.5 16:05:19 10° SSE 16:10:22 85° ENE 16:15:32 10° NNW
IRS-1C 4.1 16:05:49 10° SSE 16:11:08 85° ENE 16:16:29 10° NNW
Cosmos 1953 Rocket 3.6 16:08:04 10° N 16:12:29 60° E 16:16:52 10° SSE
Cosmos 2263 Rocket 2.2 16:07:42 10° NNW 16:13:19 58° ENE 16:18:54 10° SE
Cosmos 1867 4.2 16:09:41 10° NW 16:15:04 60° WSW 16:20:23 10° SSE
Helios 1A Rocket 4.3 16:18:12 16° ESE 16:18:12 16° ESE 16:19:33 10° SE
Meteor 1-5 Rocket 4.1 16:12:27 10° N 16:17:52 84° E 16:23:25 10° S
Cosmos 2369 3.9 16:13:28 10° S 16:18:58 51° ESE 16:23:23 16° NE
Cosmos 1825 Rocket 4.0 16:16:02 10° NNW 16:20:19 62° W 16:24:33 10° S
SAR-Lupe-4 3.9 16:19:44 10° S 16:23:15 65° WSW 16:26:48 10° NNW
Meteor 2-10 4.2 16:18:02 10° N 16:23:24 58° ENE 16:28:56 10° SSE
COSMO-SKYMED 1 3.0 16:22:48 24° NE 16:24:35 35° E 16:28:21 10° SSE
Cosmos 1076 Rocket 3.5 16:23:12 10° N 16:27:32 84° W 16:31:51 10° S
Cosmos 1655 Rocket 4.0 16:22:00 10° N 16:28:16 89° WSW 16:34:28 10° S
USA 81 3.9 16:27:45 10° N 16:33:02 70° E 16:38:16 10° SSE
Cosmos 2227 Rocket 2.9 16:27:47 10° NNW 16:33:18 56° WSW 16:38:47 10° S
SPOT 1/Viking Rocket 3.5 16:29:03 10° SSE 16:34:12 68° ENE 16:39:23 10° N
Cosmos 1697 Rocket 4.4 16:36:30 10° WSW 16:41:16 28° NW 16:46:05 10° N
Cosmos 2058 Rocket 3.2 16:40:04 10° SSW 16:44:32 75° W 16:49:01 10° N
Cosmos 2333 Rocket 3.5 16:44:13 10° SSE 16:47:30 23° ESE 16:47:30 23° ESE
Cosmos 1538 Rocket 4.2 16:43:56 10° NNW 16:49:13 73° WSW 16:54:31 10° S
EXPRESS MD2 4.0 16:56:45 10° W 16:59:01 34° NNW 16:59:01 34° NNW
Cosmos 2322 Rocket 3.9 16:55:34 10° SSE 16:57:11 16° SE 16:57:11 16° SE
USA 59 Rocket 2.1 16:58:29 10° SSE 16:59:19 13° SSE 16:59:19 13° SSE
Resurs 1-3 3.4 17:00:16 10° SSE 17:04:33 88° WSW 17:08:53 10° NNW
Cosmos-2242 4.1 17:03:46 10° SSW 17:07:48 43° WNW 17:11:23 13° N
USA 308 4.2 17:07:09 10° SSW 17:08:32 23° SSW 17:08:32 23° SSW
Spot 4 Rocket 4.1 17:06:00 10° S 17:11:05 78° WSW 17:16:14 10° NNW
Nadezhda 2 Rocket 4.4 17:05:52 10° N 17:12:00 83° W 17:18:06 10° S
Cosmos 1898 Rocket 4.5 17:08:00 10° SW 17:12:54 44° WNW 17:16:31 17° N
USA 215 4.5 17:12:07 23° NNE 17:13:00 24° N 17:18:00 10° NW
Cosmos 1553 Rocket 4.1 17:07:32 10° SSW 17:13:41 74° W 17:19:57 10° N
S3M 4.0 17:08:05 10° SSE 17:14:13 53° E 17:14:31 53° E
DMSP B5D1-3 4.4 17:15:02 62° SE 17:15:02 62° SE 17:19:40 10° S
IRAS Rocket 4.1 17:11:47 10° SSE 17:17:16 88° WSW 17:22:47 10° NNW
Cosmos 2082 3.8 17:16:14 10° NNW 17:21:58 75° WSW 17:27:39 10° SSE
Hubble Space Telescope 3.3 17:21:38 10° SSW 17:22:41 11° S 17:22:41 11° S
YAOGAN 1 3.3 17:19:11 10° S 17:23:19 51° W 17:27:29 10° NNW
Meteor 2-6 Rocket 4.3 17:20:57 10° SSW 17:26:36 79° W 17:29:21 33° N
Cosmos 1937 Rocket 4.5 17:23:32 10° SW 17:28:28 43° WNW 17:30:51 27° N
Cosmos 2237 4.5 17:23:28 10° SW 17:29:09 65° WNW 17:30:55 43° N
SL-16 R/B 2.1 17:24:17 10° SSW 17:29:26 70° SSE 17:29:26 70° SSE
Cosmos 923 Rocket 4.1 17:25:33 10° NNW 17:30:43 71° WSW 17:32:38 39° S
Cosmos 1745 Rocket 3.8 17:27:48 10° N 17:34:00 79° E 17:40:07 10° S
SL-24 R/B - RUBIN 2 4.4 17:28:59 10° SW 17:34:19 53° NW 17:34:52 51° NNW
COSMOS 2455 3.0 17:31:31 10° SW 17:37:31 69° WNW 17:38:36 57° N
BREEZE-M DEB (TANK) 3.8 17:26:23 10° WNW 17:43:56 71° NNE 17:44:17 69° NE
Cosmos 1980 Rocket 4.4 17:41:49 10° W 17:45:55 20° NW 17:49:20 12° N
Cosmos 1844 Rocket 4.2 17:43:30 10° NNW 17:45:50 25° NNW 17:45:50 25° NNW
Cosmos 2278 4.3 17:49:59 10° SSW 17:54:09 50° SW 17:54:09 50° SW
Cosmos 2360 Rocket 4.3 18:11:57 10° SSW 18:13:06 17° SSW 18:13:06 17° SSW
Cosmos 2333 Rocket 4.1 18:27:07 10° SW 18:29:35 25° WSW 18:29:35 25° WSW
